Theta_e
349 350 355 351 365 366 364 358 359 358 359 355 354 355 356 355 354 357 346 347 345 344 346 348 349 350 350 346 345 346 346 345 349 347 348 348 348 350 349 349 351 351 352 352 351 351 351 351 346
349 355 347 357 367 368 364 358 360 355 356 353 350 351 353 356 349 348 349 349 347 348 349 348 347 348 346 343 344 346 348 346 348 348 348 348 349 350 352 353 352 352 351 351 351 351 351 348 344
354 354 348 360 365 366 366 357 355 354 353 353 353 349 350 353 349 349 349 348 348 350 348 347 345 347 349 342 345 344 345 348 345 347 349 350 350 351 353 351 350 349 351 351 350 348 346 346 344
354 358 359 370 362 359 357 356 355 355 354 353 353 355 349 349 348 350 350 349 349 348 344 344 344 346 348 346 346 346 346 346 345 347 350 352 349 353 349 347 348 349 352 352 352 350 347 344 343
355 359 366 369 358 355 354 352 352 355 357 354 354 356 354 349 349 349 349 349 348 347 345 345 345 347 351 351 350 350 347 344 345 346 352 349 348 349 345 345 346 351 352 353 350 348 344 344 343
362 360 371 365 353 354 350 351 353 354 355 355 355 356 353 350 350 350 349 349 349 346 345 346 348 348 350 352 351 350 347 343 345 347 344 344 342 340 341 341 345 346 347 348 346 343 342 343 343
365 365 365 358 349 351 351 349 353 354 355 355 352 357 353 350 350 350 350 350 351 349 348 348 351 351 350 350 352 350 343 344 344 343 340 341 340 340 341 341 344 343 343 343 341 342 343 344 344
354 355 360 346 343 353 348 346 348 352 354 351 352 359 357 351 351 351 351 351 351 351 351 349 351 352 350 351 349 345 346 344 341 337 336 337 337 341 348 349 347 344 343 344 344 342 342 343 345
343 356 359 350 342 341 345 348 349 350 353 351 350 353 351 351 350 351 351 352 353 352 350 352 352 351 347 344 348 347 345 341 336 334 336 336 339 349 349 351 346 343 344 346 345 346 346 344 346
350 354 351 345 345 340 348 348 349 353 353 352 352 351 351 350 350 350 351 351 353 353 353 350 349 347 346 345 344 338 337 335 332 337 340 346 349 350 351 348 347 347 349 347 348 347 348 348 347
348 353 346 343 344 342 340 343 343 350 354 351 353 351 351 350 349 349 350 350 350 351 353 353 353 352 349 349 340 341 341 339 347 349 351 353 353 352 349 348 342 350 347 350 350 348 348 350 349
348 347 345 343 344 344 340 339 344 344 349 350 349 349 350 347 349 349 351 351 349 351 350 351 349 353 349 350 345 348 349 349 349 350 351 354 352 349 351 350 348 351 349 350 345 349 349 351 351
345 342 341 341 341 341 338 342 343 345 350 348 347 346 348 346 350 351 351 353 350 350 352 350 349 350 349 351 346 351 351 350 351 352 352 344 349 350 350 350 350 350 348 350 349 348 349 350 349
346 344 343 342 343 341 339 337 343 345 349 349 348 347 346 344 350 350 351 351 352 353 351 352 350 348 352 352 351 355 351 352 352 352 350 346 352 350 351 353 352 350 349 350 350 350 349 349 347
334 345 345 342 340 341 339 337 342 345 348 350 350 349 347 345 344 344 352 351 349 348 348 353 350 349 353 351 353 351 350 350 349 350 351 347 348 348 349 349 348 350 349 349 349 348 349 346 343
329 328 330 341 337 340 340 349 341 339 348 350 350 349 349 346 345 346 348 351 349 347 354 353 351 349 346 346 351 351 350 350 350 348 350 351 351 350 353 348 349 353 350 350 349 348 346 342 338
325 328 329 342 340 341 346 349 344 344 345 348 348 347 347 346 344 346 348 350 349 348 351 351 352 351 351 346 350 353 346 350 351 350 352 352 350 351 349 351 350 351 351 351 349 346 343 334 334
326 328 329 342 341 345 346 347 343 344 342 345 347 346 346 345 345 346 348 349 350 349 350 352 351 353 353 351 352 352 351 353 354 354 351 350 350 351 350 352 351 349 352 349 349 346 340 335 338
327 329 330 339 343 348 350 347 342 339 339 340 345 345 345 344 343 346 346 349 350 350 351 350 352 356 355 354 354 354 356 352 351 351 354 353 352 353 351 351 350 351 352 348 346 343 336 332 338
326 328 330 345 343 342 349 348 344 343 342 341 343 344 344 344 343 345 346 347 349 351 352 350 351 352 356 354 353 354 354 352 349 348 351 354 352 348 348 348 349 350 349 347 345 338 334 340 337
326 327 330 347 345 344 344 350 347 341 343 343 342 343 343 343 344 345 345 347 349 350 352 353 351 352 356 355 355 353 350 350 352 353 353 353 353 350 352 349 349 349 350 347 344 339 335 335 337
326 328 332 344 345 350 345 359 352 347 347 346 344 341 342 342 343 344 346 347 349 352 352 352 352 352 355 356 355 353 353 357 356 356 354 355 353 353 352 352 350 350 344 348 339 336 336 333 334
326 329 332 332 343 346 346 350 353 351 353 348 345 342 341 341 342 345 346 347 349 351 353 355 353 353 355 354 354 352 351 354 354 353 351 353 354 349 348 349 352 349 347 342 338 338 330 338 338
325 327 329 330 334 347 344 350 346 344 352 349 345 344 342 341 341 342 346 348 348 352 355 356 355 355 356 355 352 358 357 353 349 347 351 354 352 348 349 348 350 348 346 340 338 337 333 336 338
323 322 328 331 334 336 343 346 346 341 344 350 347 344 343 343 342 341 345 347 349 350 357 358 357 357 357 356 353 353 359 356 350 354 350 349 348 347 349 350 346 348 344 342 340 337 333 332 337
322 321 326 332 335 335 335 349 345 344 343 344 345 344 342 343 344 342 342 346 349 350 355 359 359 359 359 358 355 350 355 360 354 352 356 352 348 346 347 347 345 349 344 343 340 340 337 340 335
323 322 323 325 329 333 335 335 341 343 344 343 341 341 341 342 345 344 343 345 349 350 355 357 361 360 361 361 358 354 351 353 359 359 352 355 350 347 347 347 348 349 347 343 342 340 337 338 338
322 324 323 324 326 333 333 335 341 345 345 344 343 343 343 341 342 346 345 344 350 351 352 357 363 362 362 361 362 361 356 355 356 359 360 352 355 350 349 347 348 349 348 344 342 341 337 338 339
322 322 321 323 326 328 333 334 334 342 344 346 344 343 344 343 342 344 346 345 349 351 352 354 362 363 363 363 362 363 364 360 358 358 361 354 353 354 352 348 347 348 347 343 343 341 339 340 338
325 322 320 323 327 328 327 329 332 339 344 344 343 342 342 342 343 342 346 347 347 351 352 354 363 363 365 364 364 364 364 365 365 361 359 357 355 354 352 347 347 347 345 345 345 342 341 338 340
Wind_Speed
14 14 10 4 2 2 3 4 2 13 8 3 8 9 11 5 4 7 18 21 23 24 23 23 23 22 22 25 25 23 21 20 18 19 19 18 17 16 15 14 13 12 11 11 9 8 8 8 8
18 15 5 1 1 2 2 5 5 14 13 12 21 17 13 9 11 15 17 24 26 26 23 23 22 21 21 24 23 21 19 18 17 18 17 15 15 13 13 12 12 10 10 8 7 7 6 6 7
19 10 2 1 1 4 5 9 7 15 20 15 9 13 8 11 16 18 26 30 29 25 24 23 21 20 19 21 20 19 18 16 15 16 15 13 12 12 10 11 10 9 8 7 6 5 5 5 5
15 4 1 4 7 5 7 11 15 20 21 20 19 13 10 18 14 21 32 31 31 27 25 23 21 19 19 19 19 17 17 15 14 13 12 11 11 9 9 9 7 6 6 6 5 5 4 5 5
5 3 5 6 10 8 5 15 19 23 20 21 24 18 10 24 28 30 30 32 31 26 25 23 21 19 19 19 18 16 15 14 12 12 11 10 9 8 8 6 5 5 6 5 5 5 5 5 5
5 2 3 3 9 14 10 21 20 23 22 21 25 16 7 27 28 29 31 29 28 27 24 21 21 21 18 18 17 15 15 13 11 10 9 8 7 6 6 5 4 4 3 4 5 5 6 7 7
9 4 5 13 7 11 19 17 20 24 25 18 22 18 14 23 29 30 32 32 26 24 22 22 21 20 18 17 17 15 14 12 10 9 7 6 6 4 4 3 4 3 3 4 5 4 5 6 7
5 5 10 6 11 14 13 8 20 24 19 22 27 10 19 22 32 28 28 31 31 26 24 23 21 21 20 19 16 15 14 12 10 8 7 6 5 5 4 3 3 5 5 5 4 6 6 7 7
7 2 9 8 7 8 11 13 17 21 29 19 9 18 28 35 32 28 25 27 29 26 25 22 22 21 20 18 16 15 14 12 9 8 7 5 5 5 5 1 3 4 5 6 7 7 5 6 4
5 3 8 11 0 1 20 24 19 20 21 8 23 23 35 37 29 25 27 25 28 29 28 23 23 22 20 18 16 14 13 11 8 8 6 2 4 9 8 3 3 4 1 1 3 3 4 6 9
10 8 11 11 18 8 12 14 17 20 16 23 25 24 30 30 28 29 30 26 29 31 30 28 24 23 23 21 17 14 13 13 12 9 5 2 5 2 10 5 4 5 3 7 3 5 4 3 6
6 16 10 7 12 13 12 12 17 15 18 26 26 29 24 22 19 24 23 24 32 30 30 32 27 28 26 24 17 17 16 17 15 13 10 10 4 1 9 8 2 1 5 1 8 2 5 5 2
6 7 9 19 20 11 12 12 14 16 27 26 23 20 23 20 27 31 32 29 35 34 32 32 30 31 28 23 21 19 17 20 20 17 16 11 5 2 1 3 3 3 4 3 5 2 3 3 6
11 11 12 10 15 10 10 9 12 20 26 24 22 17 10 12 28 29 28 31 33 32 30 34 33 30 24 23 18 9 8 22 15 23 15 12 9 8 4 2 1 4 4 3 3 4 2 5 7
6 10 13 17 12 15 15 9 10 21 24 25 21 17 12 9 18 21 35 35 36 33 32 36 36 31 29 22 14 10 8 6 8 13 15 14 11 7 4 5 4 3 1 5 4 0 7 9 7
14 9 8 10 10 15 13 3 16 15 23 22 23 19 17 15 17 25 32 36 36 29 35 38 36 32 26 26 17 12 12 9 6 7 12 14 12 8 5 5 2 2 4 1 3 2 5 5 8
8 10 10 3 3 5 8 6 11 5 17 21 21 19 17 15 16 25 30 35 38 35 33 38 31 29 25 23 20 14 15 11 10 12 14 17 12 9 7 6 4 5 4 2 1 2 4 7 9
10 8 11 7 10 7 9 7 11 8 7 20 20 19 17 16 16 26 29 34 37 36 33 33 29 32 29 27 24 19 16 16 13 8 10 16 13 11 7 8 6 6 5 4 4 3 2 6 7
14 15 13 5 11 7 4 12 16 10 6 11 21 20 18 18 14 26 31 33 35 38 36 37 31 28 34 33 27 23 22 18 14 16 13 18 16 13 11 9 9 5 9 6 7 2 4 5 1
21 18 19 12 7 9 16 16 16 15 17 13 19 21 21 19 18 20 27 31 35 37 39 40 36 31 35 33 30 27 24 23 23 23 17 16 16 13 11 12 9 8 8 10 8 1 5 6 2
23 20 15 10 5 7 7 11 11 12 13 14 15 23 22 22 21 18 23 29 32 36 40 41 39 34 31 31 28 25 22 25 24 24 19 19 20 15 14 12 11 12 11 12 7 6 3 3 2
20 21 21 15 15 8 13 8 15 15 19 16 19 22 22 22 21 21 22 27 34 35 42 43 41 37 33 32 29 28 24 19 21 25 26 27 22 19 17 14 15 12 10 16 12 10 7 4 4
23 13 18 18 7 14 12 3 8 18 17 21 22 23 23 23 24 23 22 35 35 38 40 43 44 40 36 34 30 30 29 27 19 17 19 30 25 22 17 16 17 15 12 14 14 11 8 8 3
15 15 20 15 6 4 16 9 8 9 23 23 19 22 27 24 23 22 34 36 34 37 40 41 44 42 41 38 37 32 29 27 26 19 19 26 28 23 19 17 19 17 15 16 12 9 10 12 7
20 15 12 10 10 5 20 15 13 13 10 26 23 19 19 25 23 23 23 24 34 35 38 40 43 40 43 42 39 41 29 28 25 20 28 29 28 23 20 23 22 21 17 14 12 11 10 11 10
18 17 13 10 11 9 7 10 10 16 14 17 23 17 10 7 23 24 23 27 36 37 40 40 42 40 42 44 43 44 40 30 33 29 21 27 25 23 26 24 23 23 21 17 16 14 13 11 11
8 20 14 6 10 6 7 9 6 19 7 12 16 15 10 13 12 23 23 27 36 39 40 43 43 42 42 43 43 43 44 40 33 30 26 22 25 26 28 30 29 28 24 22 21 18 16 16 14
18 6 14 12 15 18 15 9 7 18 14 14 12 10 6 7 14 18 22 24 37 44 43 42 45 47 46 44 41 40 43 41 39 33 29 31 22 23 30 36 34 31 27 25 25 22 20 18 19
8 17 10 7 14 9 8 14 6 10 20 19 20 19 19 20 21 23 24 31 36 41 41 41 42 43 43 43 41 38 36 41 40 40 34 31 31 24 25 38 37 33 29 28 28 26 22 24 22
24 14 11 9 5 5 10 15 8 7 23 27 24 18 19 25 29 29 21 23 30 38 41 43 40 43 44 44 41 40 37 35 37 38 39 40 36 33 30 35 37 35 33 31 31 29 26 26 26
Wind_Direction
167 145 141 66 79 240 238 143 206 118 75 44 76 68 90 11 58 135 147 139 139 140 139 133 131 128 126 128 127 125 121 116 110 106 101 97 100 101 101 101 98 95 94 89 90 85 84 85 86
156 146 27 132 89 264 143 132 170 103 122 125 96 94 71 76 77 120 135 146 145 141 137 134 134 132 130 132 130 127 122 119 117 110 103 103 102 104 100 101 97 95 87 86 89 90 91 85 86
161 136 88 207 240 181 156 154 110 108 131 124 116 85 80 116 128 144 148 142 136 137 141 136 137 134 136 136 136 133 128 126 121 111 107 105 107 103 102 97 92 85 83 82 69 72 79 83 77
164 74 296 269 205 235 133 137 137 122 101 106 110 77 92 109 119 142 150 145 140 148 144 139 139 140 140 141 142 140 135 128 121 115 114 113 106 111 104 101 95 79 68 58 45 34 44 52 64
210 163 218 231 208 153 174 143 135 114 92 96 103 115 90 103 128 137 136 137 144 148 145 143 145 145 146 147 147 144 140 135 127 126 121 118 121 119 105 105 92 71 58 45 43 40 48 58 66
188 70 240 292 144 150 141 115 120 111 109 110 108 113 112 139 139 142 142 142 149 148 149 147 149 146 147 147 146 148 147 143 137 136 134 128 129 122 118 113 92 63 46 62 66 60 60 63 55
244 340 270 275 167 140 124 134 127 126 131 129 125 118 137 149 148 153 151 149 147 150 153 154 151 149 152 147 151 153 154 154 150 152 153 148 141 137 136 120 64 61 55 57 60 59 45 39 25
19 342 303 291 113 128 136 141 135 142 121 131 132 140 156 152 160 157 154 153 147 153 153 156 155 155 157 156 157 157 163 162 160 166 172 168 163 165 131 142 32 43 27 15 18 22 20 38 43
120 65 304 304 92 150 121 110 116 126 126 139 158 148 157 156 164 156 164 145 142 149 152 159 162 161 162 160 160 166 170 170 174 178 182 175 198 221 223 130 28 68 79 55 53 58 25 19 14
98 110 281 329 322 210 124 129 142 122 130 155 133 149 143 155 160 137 135 150 153 155 158 161 166 168 168 171 171 173 180 184 181 174 183 244 275 266 247 314 0 311 340 32 73 52 357 29 34
140 201 216 288 280 271 123 134 126 136 148 148 149 144 151 163 165 148 158 161 156 160 164 167 167 174 173 179 177 176 179 174 176 175 159 211 280 230 169 219 337 262 291 20 36 19 54 29 32
151 247 214 231 250 265 139 135 138 159 159 144 153 146 156 161 162 160 161 161 158 163 172 172 175 178 181 191 185 179 186 191 185 195 192 208 208 84 137 143 53 161 318 23 8 32 16 8 354
220 259 202 233 248 282 133 138 165 140 131 138 144 157 164 166 165 169 171 169 166 178 182 179 182 180 187 192 195 191 211 212 205 198 198 200 198 291 183 123 65 348 24 42 343 112 1 335 334
200 215 296 250 230 193 145 126 107 134 136 142 146 160 177 160 170 175 172 165 171 182 178 180 183 180 176 186 196 189 191 216 207 203 202 174 191 160 188 148 329 17 321 327 348 321 307 331 343
235 198 242 267 186 136 134 144 133 139 142 146 151 163 176 182 182 160 161 166 176 181 189 184 180 181 181 195 202 202 166 177 174 198 206 178 195 214 230 240 274 350 26 264 289 322 333 352 8
283 271 261 219 184 145 128 182 136 145 146 153 155 169 180 191 192 178 164 168 174 174 166 176 181 187 197 202 208 220 198 189 218 222 187 184 188 198 242 286 224 315 302 327 317 323 342 11 344
277 258 256 134 114 168 106 191 153 139 155 159 163 173 186 190 188 181 173 169 175 175 175 173 182 190 194 199 199 213 213 205 247 245 185 182 214 213 229 222 259 262 273 215 143 148 18 20 16
244 246 255 181 204 107 122 172 173 149 146 165 168 175 184 190 194 180 179 176 176 179 186 181 187 191 190 188 194 203 210 230 224 227 236 218 208 195 216 226 235 256 257 188 192 179 3 341 327
253 250 260 183 127 94 13 165 196 205 186 195 174 176 181 189 193 183 182 176 177 183 187 188 188 190 188 187 189 195 211 224 227 226 213 215 204 202 204 229 234 249 226 247 155 123 318 351 299
249 258 262 26 163 119 150 197 237 170 219 185 188 179 181 182 189 179 185 178 178 183 187 188 191 193 193 190 191 196 204 217 226 232 224 205 207 215 206 222 220 223 211 176 162 84 55 34 30
237 244 257 155 287 302 211 211 233 233 194 194 220 181 184 183 186 182 185 183 180 182 186 187 191 192 192 191 193 199 214 224 231 234 228 216 225 213 204 203 202 189 207 173 169 158 137 88 344
232 235 250 172 190 192 196 215 218 218 209 210 219 186 187 188 186 184 184 183 182 184 188 189 190 191 191 190 192 203 211 214 216 217 224 225 216 199 201 200 194 198 177 177 170 175 158 141 110
238 241 247 252 157 179 248 342 220 213 217 221 202 189 191 188 188 186 186 188 186 183 183 187 189 192 194 195 199 211 216 220 212 220 201 214 190 191 193 196 193 178 166 181 178 178 185 179 158
241 238 254 260 215 203 194 175 269 180 191 218 197 190 190 192 189 187 190 186 188 182 181 182 185 189 196 199 204 207 216 215 220 226 192 171 181 185 190 189 182 190 192 184 192 210 194 189 182
217 231 241 251 245 211 203 202 213 222 192 189 196 198 191 188 189 191 186 188 187 183 180 180 183 186 193 200 204 210 210 212 212 217 178 176 184 188 189 187 190 196 197 204 216 211 205 204 208
212 217 227 224 232 250 205 201 216 218 192 174 185 182 183 190 188 190 189 189 188 186 182 181 183 186 190 197 203 208 211 210 220 218 194 195 195 196 192 194 196 200 204 206 214 211 211 203 207
229 215 225 253 256 257 227 264 218 211 162 152 156 176 199 219 188 192 191 188 187 187 184 183 184 188 190 194 202 206 212 215 216 223 221 206 206 206 200 198 198 204 207 208 210 211 210 208 209
214 203 217 229 235 248 254 246 241 189 172 177 179 169 192 223 200 185 198 188 187 188 186 184 183 187 191 195 198 203 209 214 216 219 218 217 215 216 206 202 203 205 209 207 209 215 210 212 211
217 221 229 198 222 231 242 252 250 188 179 170 181 192 179 209 231 218 199 189 184 186 185 185 183 186 190 194 197 200 203 209 215 215 214 215 214 218 213 204 204 206 207 205 210 213 212 211 213
216 208 199 222 287 248 238 254 289 171 187 186 188 192 194 199 213 207 188 188 177 181 182 185 183 186 191 194 196 200 200 201 208 213 215 216 218 218 211 203 207 207 210 209 210 212 215 214 214